[Date Prev][Date Next][Thread Prev][Thread Next] - [Date Index][Thread Index][Author Index]
2 Line ISS Keps 9-22
- Subject: [sarex] 2 Line ISS Keps 9-22
- From: "Dave Larsen PhD" <doc@xxxxxxxxxxx>
- Date: Sat, 22 Sep 2007 03:28:42 -0700
ISS
1 25544U 98067A 07265.32081757 .00008970 00000-0 57998-4 0 237
2 25544 051.6355 322.6935 0010077 035.9083 055.6656 15.76955387506101
----
Sent via sarex@amsat.org. Opinions expressed are those of the author.
Not an AMSAT member? Join now to support the amateur satellite program!
Subscription settings: http://amsat.org/mailman/listinfo/sarex
AMSAT Home